Ludington, MI

3:41 AM EST on November 19, 2019 (GMT -0500)
Mason County

Weather History for KLDM - June, 2019

Change the Weather History Date:

Thursday, June 6, 2019

  Actual Average Record
Temperature  
Mean Temperature 62 °F -  
Max Temperature 73 °F 74 °F 88 °F (1988)
Min Temperature 50 °F 52 °F 33 °F (1958)
Degree Days  
Heating Degree Days 4    
Growing Degree Days 12 (Base 50)    
Moisture  
Dew Point 52 °F    
Average Humidity 75    
Maximum Humidity 98    
Minimum Humidity 43    
Precipitation  
Precipitation 0.00 in - - ()
Sea Level Pressure  
Sea Level Pressure 29.90 in    
Wind  
Wind Speed 2 mph (NNW)    
Max Wind Speed 9 mph    
Max Gust Speed -    
Visibility 9 miles    
Events      
Averages and records for this station are not official NWS values.
T = Trace of Precipitation, MM = Missing Value Source: NWS Daily Summary

Daily Weather History Graph

Daily Weather History Graph

Search for Another Location

Airport or City:

Astronomy

Jun. 06, 2019 Rise Set
Actual Time 6:03 AM EDT 9:25 PM EDT
Civil Twilight 5:28 AM EDT 10:00 PM EDT
Nautical Twilight 4:41 AM EDT 10:47 PM EDT
Astronomical Twilight 3:43 AM EDT 11:45 PM EDT
Moon 9:12 AM EDT (6/6) No Moon Set
Length of Visible Light 16h 32m
Length of Day
15h 21m
Waxing Crescent, 13% of the Moon is Illuminated
Jun 6
Waxing Crescent
Jun 10
First Quarter
Jun 17
Full
Jun 25
Last Quarter
Jul 2
New

Hourly Weather History & Observations

Time (EDT) Temp. Dew Point Humidity Pressure Visibility Wind Dir Wind Speed Gust Speed Precip Events Conditions
12:15 AM 55.2 °F 53.2 °F 93% 29.84 in 10.0 mi Calm Calm - N/A   Clear
12:35 AM 54.1 °F 52.7 °F 95% 29.85 in 10.0 mi Calm Calm - N/A   Clear
12:37 AM 53.8 °F 52.5 °F 95% 29.85 in 10.0 mi Calm Calm - N/A   Clear
12:55 AM 53.1 °F 52.2 °F 97% 29.85 in 10.0 mi Calm Calm - N/A   Clear
1:15 AM 53.1 °F 52.3 °F 97% 29.84 in 7.0 mi North 4.6 mph - N/A   Clear
1:16 AM 53.2 °F 52.5 °F 97% 29.84 in 7.0 mi North 4.6 mph - N/A   Clear
1:36 AM 54.5 °F 53.2 °F 96% 29.85 in 10.0 mi North 4.6 mph - N/A   Clear
1:55 AM 55.0 °F 53.6 °F 95% 29.85 in 10.0 mi Calm Calm - N/A   Clear
1:56 AM 55.0 °F 53.4 °F 94% 29.85 in 10.0 mi Calm Calm - N/A   Clear
2:15 AM 54.0 °F 52.7 °F 95% 29.85 in 10.0 mi Calm Calm - N/A   Clear
2:17 AM 53.8 °F 52.7 °F 96% 29.85 in 10.0 mi Calm Calm - N/A   Scattered Clouds
2:35 AM 52.9 °F 52.0 °F 97% 29.85 in 10.0 mi Calm Calm - N/A   Scattered Clouds
2:36 AM 53.1 °F 52.3 °F 97% 29.85 in 7.0 mi Calm Calm - N/A   Scattered Clouds
2:55 AM 52.2 °F 51.3 °F 97% 29.84 in 7.0 mi NE 3.5 mph - N/A   Clear
2:57 AM 52.0 °F 51.1 °F 97% 29.84 in 7.0 mi NNE 3.5 mph - N/A   Clear
3:15 AM 53.6 °F 52.7 °F 97% 29.84 in 10.0 mi North 4.6 mph - N/A   Clear
3:16 AM 53.6 °F 52.7 °F 97% 29.84 in 10.0 mi NNE 3.5 mph - N/A   Clear
3:35 AM 54.0 °F 52.7 °F 95% 29.84 in 10.0 mi NE 3.5 mph - N/A   Clear
3:37 AM 54.0 °F 52.7 °F 95% 29.84 in 10.0 mi NE 3.5 mph - N/A   Clear
3:55 AM 53.1 °F 51.8 °F 95% 29.85 in 10.0 mi Calm Calm - N/A   Clear
3:56 AM 52.9 °F 51.8 °F 96% 29.85 in 10.0 mi Calm Calm - N/A   Clear
4:15 AM 52.9 °F 52.0 °F 97% 29.85 in 7.0 mi Calm Calm - N/A   Clear
4:36 AM 52.7 °F 51.8 °F 97% 29.84 in 7.0 mi Calm Calm - N/A   Clear
4:55 AM 52.5 °F 51.6 °F 97% 29.85 in 7.0 mi Calm Calm - N/A   Clear
5:15 AM 52.2 °F 51.6 °F 98% 29.86 in 7.0 mi Calm Calm - N/A   Clear
5:16 AM 52.3 °F 51.8 °F 98% 29.86 in 7.0 mi Calm Calm - N/A   Clear
5:35 AM 50.9 °F 50.2 °F 97% 29.87 in 4.0 mi Calm Calm - N/A   Scattered Clouds
5:36 AM 50.7 °F 50.0 °F 97% 29.87 in 4.0 mi Calm Calm - N/A   Scattered Clouds
5:55 AM 51.4 °F 50.9 °F 98% 29.87 in 5.0 mi Calm Calm - N/A   Overcast
6:15 AM 52.7 °F 51.8 °F 97% 29.88 in 5.0 mi Calm Calm - N/A   Overcast
6:16 AM 52.7 °F 52.0 °F 97% 29.88 in 5.0 mi Calm Calm - N/A   Overcast
6:35 AM 53.6 °F 52.9 °F 97% 29.88 in 7.0 mi North 3.5 mph - N/A   Overcast
6:36 AM 53.6 °F 52.9 °F 97% 29.88 in 7.0 mi Calm Calm - N/A   Overcast
6:55 AM 54.3 °F 53.4 °F 97% 29.88 in 10.0 mi NNE 3.5 mph - N/A   Overcast
7:15 AM 55.0 °F 53.8 °F 96% 29.89 in 10.0 mi Calm Calm - N/A   Overcast
7:35 AM 55.4 °F 54.0 °F 95% 29.90 in 10.0 mi Calm Calm - N/A   Overcast
7:36 AM 55.4 °F 54.0 °F 95% 29.90 in 10.0 mi Calm Calm - N/A   Overcast
7:55 AM 56.5 °F 55.2 °F 96% 29.90 in 10.0 mi East 3.5 mph - N/A   Overcast
7:56 AM 56.7 °F 55.2 °F 95% 29.90 in 10.0 mi East 4.6 mph - N/A   Overcast
8:15 AM 58.3 °F 56.3 °F 93% 29.90 in 10.0 mi NW 8.1 mph - N/A   Overcast
8:35 AM 59.0 °F 56.3 °F 91% 29.91 in 10.0 mi Calm Calm - N/A   Overcast
8:36 AM 59.0 °F 56.1 °F 90% 29.91 in 10.0 mi Calm Calm - N/A   Overcast
8:55 AM 61.0 °F 57.0 °F 87% 29.91 in 10.0 mi Calm Calm - N/A   Mostly Cloudy
8:57 AM 61.2 °F 57.0 °F 86% 29.91 in 10.0 mi Calm Calm - N/A   Mostly Cloudy
9:15 AM 62.1 °F 57.2 °F 84% 29.91 in 10.0 mi Calm Calm - N/A   Mostly Cloudy
9:16 AM 62.1 °F 57.2 °F 84% 29.91 in 10.0 mi Calm Calm - N/A   Mostly Cloudy
9:39 AM 63.9 °F 58.3 °F 82% 29.92 in 10.0 mi Calm Calm - N/A   Scattered Clouds
9:57 AM 64.8 °F 58.3 °F 79% 29.92 in 10.0 mi Calm Calm - N/A   Scattered Clouds
10:15 AM 66.0 °F 58.3 °F 76% 29.92 in 10.0 mi Calm Calm - N/A   Mostly Cloudy
10:16 AM 65.8 °F 58.1 °F 76% 29.92 in 10.0 mi Calm Calm - N/A   Mostly Cloudy
10:35 AM 66.0 °F 58.1 °F 76% 29.92 in 10.0 mi Calm Calm - N/A   Overcast
10:36 AM 66.2 °F 58.1 °F 75% 29.92 in 10.0 mi Calm Calm - N/A   Overcast
10:55 AM 66.9 °F 58.5 °F 74% 29.91 in 10.0 mi Calm Calm - N/A   Overcast
11:00 AM 68.0 °F 58.6 °F 72% 29.92 in 10.0 mi Calm Calm - N/A   Mostly Cloudy
11:18 AM 70.2 °F 59.0 °F 68% 29.92 in 10.0 mi Calm Calm - N/A   Overcast
11:36 AM 70.0 °F 57.9 °F 65% 29.92 in 10.0 mi Calm Calm - N/A   Mostly Cloudy
11:55 AM 71.1 °F 59.2 °F 66% 29.92 in 10.0 mi West 3.5 mph - N/A   Scattered Clouds
12:15 PM 72.3 °F 59.2 °F 63% 29.92 in 10.0 mi West 5.8 mph - N/A   Scattered Clouds
12:16 PM 72.1 °F 59.0 °F 63% 29.92 in 10.0 mi West 4.6 mph - N/A   Scattered Clouds
12:39 PM 70.9 °F 58.1 °F 64% 29.92 in 10.0 mi West 6.9 mph - N/A   Scattered Clouds
12:57 PM 70.3 °F 58.1 °F 65% 29.92 in 10.0 mi WSW 9.2 mph - N/A   Scattered Clouds
1:15 PM 69.1 °F 57.2 °F 66% 29.92 in 10.0 mi West 9.2 mph - N/A   Mostly Cloudy
1:35 PM 70.3 °F 57.4 °F 63% 29.92 in 10.0 mi WNW 6.9 mph - N/A   Overcast
1:55 PM 70.5 °F 57.7 °F 64% 29.92 in 10.0 mi WNW 6.9 mph - N/A   Overcast
2:18 PM 71.1 °F 57.2 °F 61% 29.92 in 10.0 mi West 9.2 mph - N/A   Scattered Clouds
2:36 PM 71.6 °F 57.4 °F 61% 29.92 in 10.0 mi West 8.1 mph - N/A   Clear
2:55 PM 73.6 °F 57.4 °F 57% 29.92 in 10.0 mi NW 4.6 mph - N/A   Clear
2:56 PM 73.6 °F 57.2 °F 56% 29.92 in 10.0 mi NW 4.6 mph - N/A   Clear
3:15 PM 73.4 °F 55.8 °F 54% 29.92 in 10.0 mi NW 6.9 mph - N/A   Clear
3:39 PM 70.9 °F 54.0 °F 55% 29.92 in 10.0 mi NNW 6.9 mph - N/A   Clear
3:57 PM 72.1 °F 52.2 °F 49% 29.92 in 10.0 mi WNW 6.9 mph - N/A   Clear
4:15 PM 72.0 °F 50.5 °F 47% 29.92 in 10.0 mi NNW 6.9 mph - N/A   Clear
4:16 PM 72.1 °F 51.1 °F 47% 29.92 in 10.0 mi NNW 6.9 mph - N/A   Clear
4:35 PM 72.5 °F 53.1 °F 50% 29.92 in 10.0 mi NNW 6.9 mph - N/A   Clear
4:36 PM 72.7 °F 52.9 °F 50% 29.92 in 10.0 mi NNW 6.9 mph - N/A   Clear
4:55 PM 72.5 °F 52.5 °F 49% 29.92 in 10.0 mi NW 8.1 mph - N/A   Clear
5:18 PM 73.2 °F 52.0 °F 47% 29.92 in 10.0 mi NNW 4.6 mph - N/A   Clear
5:36 PM 72.9 °F 51.8 °F 47% 29.92 in 10.0 mi NW 5.8 mph - N/A   Clear
5:55 PM 72.7 °F 51.8 °F 48% 29.92 in 10.0 mi NNW 4.6 mph - N/A   Clear
5:56 PM 72.9 °F 51.8 °F 47% 29.92 in 10.0 mi NNW 5.8 mph - N/A   Clear
6:15 PM 72.7 °F 50.7 °F 46% 29.92 in 10.0 mi NNW 8.1 mph - N/A   Clear
6:16 PM 72.5 °F 50.5 °F 46% 29.92 in 10.0 mi North 6.9 mph - N/A   Clear
6:39 PM 71.8 °F 48.9 °F 44% 29.92 in 10.0 mi NNW 8.1 mph - N/A   Clear
6:57 PM 71.8 °F 48.4 °F 43% 29.92 in 10.0 mi NNW 6.9 mph - N/A   Clear
7:15 PM 71.4 °F 48.0 °F 43% 29.92 in 10.0 mi North 6.9 mph - N/A   Clear
7:16 PM 71.2 °F 47.8 °F 43% 29.92 in 10.0 mi North 6.9 mph - N/A   Clear
7:35 PM 70.9 °F 47.3 °F 43% 29.92 in 10.0 mi NNW 3.5 mph - N/A   Clear
7:36 PM 70.7 °F 47.3 °F 43% 29.92 in 10.0 mi NNW 3.5 mph - N/A   Clear
7:55 PM 70.2 °F 48.0 °F 45% 29.92 in 10.0 mi NNW 4.6 mph - N/A   Clear
8:17 PM 68.2 °F 48.6 °F 49% 29.92 in 10.0 mi NNW 3.5 mph - N/A   Clear
8:36 PM 65.7 °F 49.3 °F 55% 29.93 in 10.0 mi North 4.6 mph - N/A   Clear
8:55 PM 63.7 °F 47.3 °F 55% 29.93 in 10.0 mi NNW 3.5 mph - N/A   Clear
8:56 PM 63.7 °F 47.3 °F 55% 29.93 in 10.0 mi NNW 3.5 mph - N/A   Clear
9:15 PM 61.5 °F 47.1 °F 59% 29.93 in 10.0 mi NNW 3.5 mph - N/A   Clear
9:16 PM 61.5 °F 46.9 °F 59% 29.93 in 10.0 mi NNW 3.5 mph - N/A   Clear
9:39 PM 61.0 °F 45.0 °F 56% 29.93 in 10.0 mi North 3.5 mph - N/A   Clear
9:57 PM 59.5 °F 42.6 °F 54% 29.93 in 10.0 mi North 3.5 mph - N/A   Clear
10:15 PM 55.9 °F 44.6 °F 66% 29.94 in 10.0 mi North 4.6 mph - N/A   Clear
10:16 PM 55.8 °F 44.8 °F 67% 29.94 in 10.0 mi North 3.5 mph - N/A   Clear
10:35 PM 55.8 °F 44.4 °F 66% 29.94 in 10.0 mi North 3.5 mph - N/A   Clear
10:36 PM 55.9 °F 44.4 °F 65% 29.94 in 10.0 mi North 3.5 mph - N/A   Clear
10:55 PM 56.3 °F 43.2 °F 61% 29.94 in 10.0 mi Calm Calm - N/A   Clear
11:17 PM 52.5 °F 44.8 °F 75% 29.94 in 10.0 mi Calm Calm - N/A   Clear
11:36 PM 53.1 °F 44.4 °F 72% 29.94 in 10.0 mi Calm Calm - N/A   Clear
11:55 PM 51.3 °F 44.4 °F 77% 29.94 in 10.0 mi Calm Calm - N/A   Clear
11:56 PM 51.4 °F 44.4 °F 77% 29.94 in 10.0 mi Calm Calm - N/A   Clear